Showing default

LT-1 01A, 51284

Orbit data source: Space-Track

LT-1 01A, 51284 is a payload satellite owned by SAST (CN) in SSO that was launched on Tue, 25 Jan 2022 UTC via a CHANG ZHENG 4C launch vehicle from the Jiuquan Satellite Launch Center, China (JSC). Payload-class satellites include a variety of spacecraft equipped with specific instruments for various scientific and technological missions. These include communications satellites like Starlink; space stations such as the ISS; scientific satellites like the Hubble; Earth observation satellites from companies like Planet Labs, Umbra, and HawkEye 360; GPS; miniature CubeSats for education and research; and military/defense satellites.

Loading next visibility...
Identifier
51284, 2022-007A
Orbit
SSO
Country
Flag of CNCN / PRC
Related business
Manufacturer
SAST
Mission
Operational Civil Radar Imaging
Bus & Motor
LSAR, AOCS 20N
Mass
3,200 kg wet, ~2,500 kg dry
Launch date (UTC)
2022-01-25 (4 years ago)
Launch vehicle
CHANG ZHENG 4C
Launch site
Jiuquan Satellite Launch Center, China (JSC)
Object type
Payload
Rocket body
Debris
Shape & HBR
Box + 4 Pan, 5.0 m
Radar Cross Section
14.608 m², Large (>1 m²)

Expand to show TLE details & history
Last TLE update: 7 hours ago

TLE from 7 hours ago
0 LT-1 01A
1 51284U 22007A   26127.97943372  .00000528  00000-0  62860-4 0  9994
2 51284  97.8092 135.9729 0001585  91.0527 269.0871 14.88408878232495
Epoch: 2026-05-07T23:30Z
TLE epoch observation values (Epoch: 2026-05-07T23:30:23.073Z)
Latitude
-0.00006°
Longitude
-82.44103°
Altitude
605.96 km
Speed
7.556 km/s
True Right ascension
09h 03m 53s
True Declination
0° 00' 00"
Sunlit
Object was in daylight at epoch
Visualization orbit readout
Latitude
Unknown
Longitude
Unknown
Altitude
Unknown
Speed
Unknown
Apparent Right ascension
Unknown
Apparent Declination
Unknown
Sunlit
N/A
Visualization observer readout
Local Sidereal Time
14:21:20
Azimuth
Unknown
Elevation
Unknown
Doppler factor
Unknown
Orbital elements
Apogee altitude
601.038 km
Perigee altitude
598.826 km
Semi-major axis
6,978.069 km
Eccentricity
0.00016
Inclination
97.8092°
RAAN
135.9729°
Arg. of periapsis
91.0527°
True anomaly
269.06894°
Mean anomaly
269.0871°
Eccentric anomaly
269.07802°
Mean motion
3.72341 °/min
Orbital period
96.69 mins
BSTAR
0.00006286
Loading maneuver chart data...
Computing Atmospheric mass density...
Loading historical data...
Loading historical data...
Loading historical data...
Loading historical data...
Loading historical data...
Loading historical data...
Loading historical data...
Other satellites on launch #7 in the year 2022 (2022-01-25 UTC)

Documentation

Showing up to 5 results
|